DB0TV-13 Weather Reports


time (UTC)temp
C
wind
direction
speed
KPH
gust
KPH
rain 1hr
cm
rain 24hr
cm
rain mn
cm
humidity
%
barometer
mb
20260503194018 14 203 4.8 12.9 0.00 0.15 0.00 83 1012.1
20260503193019 14 158 4.8 16.1 0.00 0.28 0.00 84 1012.1
20260503192018 14 180 4.8 14.5 0.00 0.28 0.00 84 1011.9
20260503191018 14 158 4.8 14.5 0.00 0.28 0.00 84 1011.8
20260503190019 14 180 4.8 14.5 0.00 0.28 0.00 84 1011.7
20260503185018 14 158 4.8 9.7 0.00 0.28 0.00 85 1011.6
20260503184018 14 158 4.8 12.9 0.00 0.28 0.00 85 1011.6
20260503183018 14 158 4.8 12.9 0.00 0.28 0.00 85 1011.5
20260503182020 14 158 4.8 11.3 0.00 0.28 0.00 84 1011.5
20260503181018 14 158 4.8 14.5 0.00 0.28 0.00 84 1011.5
20260503180018 14 158 6.4 12.9 0.00 0.28 0.00 84 1011.5
20260503175018 15 158 6.4 12.9 0.00 0.28 0.00 84 1011.4
20260503174020 14 135 4.8 9.7 0.00 0.28 0.00 85 1011.4
20260503173020 14 158 3.2 8.0 0.00 0.28 0.00 85 1011.4
20260503172020 14 180 4.8 11.3 0.00 0.28 0.00 85 1011.5
20260503171018 14 203 6.4 12.9 0.00 0.28 0.00 85 1011.6
20260503131019 19 203 11.3 24.1 0.00 0.28 0.00 54 1011.6
20260503081019 18 158 8.0 17.7 0.00 0.28 0.00 56 1012.0
20260503072019 17 135 9.7 19.3 0.00 0.28 0.00 58 1012.2
20260503071019 17 135 8.0 22.5 0.00 0.28 0.00 58 1012.1
20260503055019 15 158 6.4 19.3 0.00 0.28 0.00 64 1012.5
20260503054019 15 158 6.4 17.7 0.00 0.28 0.00 65 1012.4
20260503053019 14 135 6.4 14.5 0.00 0.28 0.00 67 1012.4
20260503052019 14 135 4.8 16.1 0.00 0.28 0.00 66 1012.2
20260503051019 14 158 4.8 12.9 0.00 0.28 0.00 67 1012.2
20260503050019 14 135 4.8 14.5 0.00 0.28 0.00 67 1012.2
20260503045019 13 158 3.2 11.3 0.00 0.28 0.00 68 1012.1
20260503044019 14 180 1.6 4.8 0.00 0.28 0.00 69 1012.1
20260503043018 14 135 3.2 12.9 0.00 0.28 0.00 68 1012.2
20260503042019 14 158 1.6 4.8 0.00 0.28 0.00 69 1012.4
20260503041019 14 135 1.6 8.0 0.00 0.28 0.00 69 1012.5
20260503040019 14 158 1.6 3.2 0.00 0.28 0.00 69 1012.4
20260503035018 14 180 1.6 6.4 0.00 0.28 0.00 70 1012.5
20260503034019 14 158 1.6 3.2 0.00 0.28 0.00 70 1012.5
20260503033019 14 270 1.6 4.8 0.00 0.28 0.00 71 1012.5
20260503032019 14 0.0 4.8 0.00 0.28 0.00 72 1012.4
20260503031018 14 0.0 3.2 0.00 0.28 0.00 73 1012.6
20260503030018 14 0.0 0.0 0.00 0.28 0.00 74 1012.7
20260503025019 13 180 1.6 6.4 0.00 0.28 0.00 75 1012.7
20260503024018 13 0.0 3.2 0.00 0.28 0.00 77 1012.6
20260503023018 13 203 1.6 6.4 0.00 0.28 0.00 78 1012.7
20260503022018 13 0.0 3.2 0.00 0.28 0.00 80 1012.9
20260503021019 13 158 1.6 6.4 0.00 0.28 0.00 82 1012.9
20260503020018 13 158 1.6 6.4 0.00 0.28 0.00 83 1013.0
20260503015018 13 0.0 0.0 0.00 0.28 0.00 83 1013.1
20260503014018 14 203 1.6 6.4 0.00 0.28 0.00 83 1013.2
20260503013018 14 225 1.6 4.8 0.00 0.28 0.00 84 1013.5
20260503012018 13 0.0 4.8 0.00 0.28 0.00 85 1013.4
20260503011018 14 293 3.2 6.4 0.00 0.28 0.00 85 1013.5
20260503010018 14 0.0 3.2 0.00 0.28 0.00 85 1013.4
20260503005018 14 158 1.6 4.8 0.00 0.28 0.00 86 1013.6
20260503004018 14 158 1.6 3.2 0.00 0.28 0.00 87 1013.6
20260503003018 14 0.0 6.4 0.00 0.28 0.00 88 1013.7
20260503002018 13 180 1.6 8.0 0.00 0.28 0.00 90 1013.7
20260503001020 13 0.0 4.8 0.00 0.28 0.00 90 1013.9
20260503000018 13 0.0 0.0 0.00 0.28 0.00 90 1013.9
20260502235018 13 0.0 3.2 0.00 0.28 0.00 91 1014.1
20260502234018 13 90 1.6 4.8 0.00 0.28 0.00 91 1014.2
20260502233020 13 0.0 0.0 0.00 0.28 0.00 91 1014.3
20260502232018 13 0.0 0.0 0.00 0.28 0.00 91 1014.4
20260502231018 13 0.0 1.6 0.00 0.28 0.00 91 1014.5
20260502230020 13 0.0 0.0 0.00 0.28 0.00 91 1014.7
20260502225020 13 0.0 0.0 0.00 0.28 0.00 90 1014.8
20260502224018 13 0.0 0.0 0.00 0.28 0.00 90 1014.7
20260502223018 13 0.0 0.0 0.00 0.28 0.00 90 1014.6
20260502222020 14 0.0 3.2 0.00 0.28 0.00 90 1014.6
20260502221020 13 45 1.6 6.4 0.00 0.28 0.00 91 1014.8
20260502220020 13 68 3.2 6.4 0.00 0.28 0.28 92 1014.8
20260502215019 13 68 1.6 4.8 0.00 0.28 0.28 92 1014.9
20260502214018 13 68 4.8 8.0 0.00 0.28 0.28 92 1015.0
20260502213018 13 68 1.6 6.4 0.00 0.28 0.28 92 1015.0
20260502212018 13 68 6.4 14.5 0.00 0.28 0.28 93 1015.2
20260502211019 13 45 1.6 9.7 0.00 0.28 0.28 92 1015.3
20260502210019 14 68 1.6 6.4 0.00 0.28 0.28 92 1015.4
20260502205018 14 45 4.8 9.7 0.00 0.28 0.28 92 1015.5
20260502204018 14 68 1.6 4.8 0.15 0.28 0.28 91 1015.8
20260502203019 14 270 1.6 4.8 0.28 0.28 0.28 91 1015.9
20260502202019 14 0.0 3.2 0.28 0.28 0.28 90 1015.8
20260502201018 14 23 1.6 11.3 0.28 0.28 0.28 90 1015.8
20260502200018 14 338 3.2 8.0 0.28 0.28 0.28 89 1015.8
20260502195018 15 293 4.8 16.1 0.28 0.28 0.28 87 1015.8